Weather History for Enid, OK

Change the Weather History Date:

Saturday, March 22, 2014

  Actual Average Record
Temperature  
Mean Temperature 47 °F -  
Max Temperature 57 °F 59 °F 84 °F (2011)
Min Temperature 37 °F 40 °F 19 °F (2002)
Degree Days  
Heating Degree Days 18    
Moisture  
Dew Point 27 °F    
Average Humidity 51    
Maximum Humidity 75    
Minimum Humidity 31    
Precipitation  
Precipitation 0.00 in - - ()
Sea Level Pressure  
Sea Level Pressure 30.18 in    
Wind  
Wind Speed 15 mph (NNE)    
Max Wind Speed 29 mph    
Max Gust Speed 36 mph    
Visibility 10 miles    
Events      
Averages and records for this station are not official NWS values.
T = Trace of Precipitation, MM = Missing Value Source: NWS Daily Summary

Daily Weather History Graph

Daily Weather History Graph

Search for Another Location

Airport:

Trip Planner

Search our weather history database for the weather conditions in past years. The results will help you decide how hot, cold, wet, or windy it might be!

Date:

Astronomy

Mar. 22, 2014 Rise Set
Actual Time 7:31 AM CDT 7:44 PM CDT
Civil Twilight 7:06 AM CDT 8:10 PM CDT
Nautical Twilight 6:36 AM CDT 8:40 PM CDT
Astronomical Twilight 6:05 AM CDT 9:11 PM CDT
Moon 12:57 AM CDT (3/22) 11:24 AM CDT (3/22)
Length of Visible Light 13h 04m
Length of Day
12h 12m
Waning Gibbous, 65% of the Moon is Illuminated
Mar 22
Waning Gibbous
Mar 23
Last Quarter
Mar 30
New
Apr 7
First Quarter
Apr 15
Full

Hourly Weather History & Observations

Time (CDT) Temp. Windchill Dew Point Humidity Pressure Visibility Wind Dir Wind Speed Gust Speed Precip Events Conditions
12:15 AM 46.4 °F 40.4 °F 30.2 °F 53% 30.05 in 10.0 mi NNE 13.8 mph - N/A   Clear
12:35 AM 48.2 °F - 28.4 °F 46% 30.07 in 10.0 mi NNE 13.8 mph - N/A   Clear
12:55 AM 44.6 °F 39.7 °F 30.2 °F 57% 30.07 in 10.0 mi North 9.2 mph - N/A   Clear
1:15 AM 46.4 °F 39.8 °F 28.4 °F 50% 30.06 in 10.0 mi NNE 16.1 mph - N/A   Clear
1:35 AM 44.6 °F 37.2 °F 30.2 °F 57% 30.06 in 10.0 mi NNE 17.3 mph - N/A   Clear
1:55 AM 44.6 °F 37.4 °F 30.2 °F 57% 30.05 in 10.0 mi NNE 16.1 mph - N/A   Clear
2:15 AM 46.4 °F 39.2 °F 30.2 °F 53% 30.06 in 10.0 mi NNE 18.4 mph 21.9 mph N/A   Clear
2:35 AM 46.4 °F 41.1 °F 30.2 °F 53% 30.10 in 10.0 mi North 11.5 mph - N/A   Clear
2:55 AM 44.6 °F 38.4 °F 30.2 °F 57% 30.12 in 10.0 mi North 12.7 mph - N/A   Clear
3:15 AM 42.8 °F 36.6 °F 30.2 °F 61% 30.13 in 10.0 mi NNE 11.5 mph - N/A   Clear
3:35 AM 42.8 °F 37.0 °F 32.0 °F 66% 30.14 in 10.0 mi North 10.4 mph - N/A   Clear
3:55 AM 41.0 °F 33.5 °F 32.0 °F 70% 30.14 in 10.0 mi NNE 13.8 mph - N/A   Clear
4:15 AM 42.8 °F 35.4 °F 32.0 °F 66% 30.13 in 10.0 mi NNE 15.0 mph - N/A   Clear
4:35 AM 41.0 °F 34.3 °F 32.0 °F 70% 30.15 in 10.0 mi North 11.5 mph - N/A   Clear
4:55 AM 41.0 °F 33.9 °F 32.0 °F 70% 30.16 in 10.0 mi NNE 12.7 mph - N/A   Clear
5:15 AM 39.2 °F 31.6 °F 32.0 °F 75% 30.18 in 10.0 mi North 12.7 mph - N/A   Clear
5:35 AM 41.0 °F 33.1 °F 32.0 °F 70% 30.17 in 10.0 mi NNE 15.0 mph 24.2 mph N/A   Clear
5:55 AM 39.2 °F 30.8 °F 32.0 °F 75% 30.17 in 10.0 mi NNE 15.0 mph - N/A   Clear
6:15 AM 39.2 °F 30.2 °F 32.0 °F 75% 30.17 in 10.0 mi NNE 17.3 mph - N/A   Clear
6:50 AM 39.2 °F 30.8 °F 32.0 °F 75% 30.18 in 10.0 mi NNE 15.0 mph - N/A   Scattered Clouds
7:50 AM 37.4 °F 28.9 °F 30.2 °F 75% 30.22 in 10.0 mi North 13.8 mph - N/A   Scattered Clouds
8:50 AM 37.4 °F 28.5 °F 30.2 °F 75% 30.24 in 10.0 mi North 15.0 mph - N/A   Partly Cloudy
9:50 AM 41.0 °F 32.2 °F 30.2 °F 65% 30.25 in 10.0 mi NNE 18.4 mph - N/A   Scattered Clouds
10:50 AM 44.6 °F - 28.4 °F 53% 30.25 in 10.0 mi NNE 179.5 mph - N/A   Scattered Clouds
11:50 AM 48.2 °F - 26.6 °F 43% 30.24 in 10.0 mi NE 17.3 mph 23.0 mph N/A   Scattered Clouds
12:50 PM 51.8 °F - 26.6 °F 38% 30.21 in 10.0 mi NNE 15.0 mph 21.9 mph N/A   Mostly Cloudy
1:50 PM 53.6 °F - 26.6 °F 35% 30.19 in 10.0 mi NE 13.8 mph 21.9 mph N/A   Mostly Cloudy
2:50 PM 55.4 °F - 26.6 °F 33% 30.15 in 10.0 mi NNE 16.1 mph 24.2 mph N/A   Scattered Clouds
3:50 PM 57.2 °F - 26.6 °F 31% 30.12 in 10.0 mi North 16.1 mph 23.0 mph N/A   Scattered Clouds
4:50 PM 57.2 °F - 26.6 °F 31% 30.10 in 10.0 mi NNE 16.1 mph 23.0 mph N/A   Mostly Cloudy
5:50 PM 55.4 °F - 26.6 °F 33% 30.12 in 10.0 mi NNE 15.0 mph 23.0 mph N/A   Mostly Cloudy
6:50 PM 53.6 °F - 24.8 °F 33% 30.13 in 10.0 mi NNE 17.3 mph - N/A   Overcast
7:55 PM 51.8 °F - 24.8 °F 35% 30.17 in 10.0 mi North 15.0 mph - N/A   Overcast
8:50 PM 50.0 °F - 23.0 °F 35% 30.21 in 10.0 mi North 17.3 mph 27.6 mph N/A   Overcast
9:15 PM 48.2 °F - 23.0 °F 37% 30.22 in 10.0 mi NNE 20.7 mph - N/A   Overcast
9:35 PM 46.4 °F 38.3 °F 21.2 °F 37% 30.24 in 10.0 mi NNE 23.0 mph 26.5 mph N/A   Overcast
9:55 PM 46.4 °F 38.5 °F 21.2 °F 37% 30.26 in 10.0 mi NNE 21.9 mph 27.6 mph N/A   Overcast
10:15 PM 46.4 °F 38.5 °F 19.4 °F 34% 30.28 in 10.0 mi NNE 21.9 mph 32.2 mph N/A   Mostly Cloudy
10:35 PM 44.6 °F 35.5 °F 19.4 °F 37% 30.29 in 10.0 mi NNE 25.3 mph 31.1 mph N/A   Mostly Cloudy
10:55 PM 44.6 °F 36.4 °F 19.4 °F 37% 30.31 in 10.0 mi NNE 20.7 mph 32.2 mph N/A   Mostly Cloudy
11:15 PM 42.8 °F 33.1 °F 17.6 °F 36% 30.32 in 10.0 mi NNE 25.3 mph 33.4 mph N/A   Scattered Clouds
11:35 PM 41.0 °F 30.0 °F 14.0 °F 33% 30.34 in 10.0 mi North 28.8 mph 33.4 mph N/A   Clear
11:55 PM 37.4 °F 25.4 °F 12.2 °F 36% 30.35 in 10.0 mi NNE 27.6 mph 35.7 mph N/A   Scattered Clouds